Weather History for KFLL - November, 2010

Change the Weather History Date:

Friday, November 19, 2010

  Actual Average Record
Temperature  
Mean Temperature 72 °F 75 °F  
Max Temperature 80 °F 81 °F 88 °F (1986)
Min Temperature 64 °F 69 °F 41 °F (1951)
Degree Days  
Heating Degree Days 0 0  
Month to date heating degree days 7 0  
Since 1 July heating degree days 7 0  
Cooling Degree Days 7 10  
Month to date cooling degree days 133 216  
Year to date cooling degree days 4056 4410  
Growing Degree Days 22 (Base 50)    
Moisture  
Dew Point 56 °F    
Average Humidity 58    
Maximum Humidity 78    
Minimum Humidity 37    
Precipitation  
Precipitation T in 0.08 in 10.45 in (1973)
Month to date precipitation 0.85 2.28  
Year to date precipitation 58.28 58.76  
Snow  
Snow 0.00 in - - ()
Month to date snowfall 0.0  
Since 1 July snowfall 0.0  
Since 1 September snowfall 0.0  
Snow Depth 0.00 in    
Sea Level Pressure  
Sea Level Pressure 30.13 in    
Wind  
Wind Speed 13 mph (NE)    
Max Wind Speed 21 mph    
Max Gust Speed 25 mph    
Visibility 10 miles    
Events      
T = Trace of Precipitation, MM = Missing Value Source: NWS Daily Summary

Daily Weather History Graph

Daily Weather History Graph

Search for Another Location

Airport or City:

Trip Planner

Search our weather history database for the weather conditions in past years. The results will help you decide how hot, cold, wet, or windy it might be!

Date:

Astronomy

Nov. 19, 2010 Rise Set
Actual Time 6:41 AM EST 5:29 PM EST
Civil Twilight 6:17 AM EST 5:54 PM EST
Nautical Twilight 5:49 AM EST 6:22 PM EST
Astronomical Twilight 5:21 AM EST 6:50 PM EST
Moon 3:57 PM EST (11/19) 4:42 AM EST (11/19)
Length of Visible Light 11h 37m
Length of Day
10h 48m
Waxing Gibbous, 96% of the Moon is Illuminated
Nov 19
Waxing Gibbous
Nov 21
Full
Nov 28
Last Quarter
Dec 5
New
Dec 13
First Quarter

Hourly Weather History & Observations

Time (EST) Temp. Dew Point Humidity Pressure Visibility Wind Dir Wind Speed Gust Speed Precip Events Conditions
12:53 AM 69.1 °F 55.9 °F 63% 30.09 in 10.0 mi North 11.5 mph - N/A   Clear
1:53 AM 68.0 °F 55.9 °F 65% 30.07 in 10.0 mi NNW 8.1 mph - N/A   Clear
2:53 AM 66.0 °F 57.0 °F 73% 30.06 in 10.0 mi NNW 10.4 mph - N/A   Clear
3:53 AM 64.9 °F 57.0 °F 75% 30.06 in 10.0 mi NNW 10.4 mph - N/A   Partly Cloudy
4:53 AM 64.9 °F 57.0 °F 75% 30.06 in 10.0 mi North 8.1 mph - N/A   Partly Cloudy
5:53 AM 64.0 °F 55.9 °F 75% 30.08 in 10.0 mi NNW 6.9 mph - N/A   Partly Cloudy
6:53 AM 66.9 °F 55.9 °F 68% 30.10 in 10.0 mi NNE 5.8 mph - N/A   Scattered Clouds
7:53 AM 73.9 °F 55.9 °F 53% 30.12 in 10.0 mi NE 13.8 mph 19.6 mph N/A   Scattered Clouds
8:53 AM 75.9 °F 57.0 °F 52% 30.15 in 10.0 mi ENE 17.3 mph - N/A   Scattered Clouds
9:53 AM 77.0 °F 55.9 °F 48% 30.16 in 10.0 mi NE 17.3 mph 21.9 mph N/A   Partly Cloudy
10:53 AM 77.0 °F 55.0 °F 47% 30.17 in 10.0 mi ENE 16.1 mph 24.2 mph N/A   Scattered Clouds
11:53 AM 78.1 °F 53.1 °F 42% 30.16 in 10.0 mi ENE 13.8 mph - N/A   Partly Cloudy
12:53 PM 79.0 °F 50.0 °F 36% 30.13 in 10.0 mi ENE 15.0 mph - N/A   Partly Cloudy
1:53 PM 79.0 °F 55.0 °F 44% 30.11 in 10.0 mi ENE 13.8 mph - N/A   Partly Cloudy
2:53 PM 78.1 °F 57.9 °F 50% 30.10 in 10.0 mi ENE 15.0 mph 23.0 mph N/A   Mostly Cloudy
3:53 PM 75.9 °F 57.0 °F 52% 30.11 in 10.0 mi ENE 13.8 mph - N/A   Mostly Cloudy
4:53 PM 75.0 °F 57.9 °F 55% 30.12 in 10.0 mi NE 16.1 mph - N/A   Scattered Clouds
5:53 PM 73.9 °F 57.0 °F 55% 30.13 in 10.0 mi ENE 13.8 mph - N/A   Scattered Clouds
6:53 PM 73.9 °F 55.9 °F 53% 30.15 in 10.0 mi ENE 12.7 mph - N/A   Scattered Clouds
7:53 PM 73.9 °F 57.0 °F 55% 30.16 in 10.0 mi East 11.5 mph - N/A   Mostly Cloudy
8:53 PM 73.9 °F 57.0 °F 55% 30.17 in 10.0 mi ENE 11.5 mph - N/A   Mostly Cloudy
9:53 PM 73.9 °F 55.9 °F 53% 30.19 in 10.0 mi ENE 12.7 mph 23.0 mph N/A   Mostly Cloudy
10:53 PM 73.9 °F 57.9 °F 57% 30.19 in 10.0 mi East 17.3 mph 23.0 mph N/A   Mostly Cloudy
11:53 PM 73.9 °F 55.0 °F 52% 30.18 in 10.0 mi East 12.7 mph - 0.00 in   Overcast